星链-34125 (STARLINK-34125)

导读 | 豆包AI

STARLINK-34125是美国于2025年5月10日发射的星链卫星,星链是SpaceX打造的低轨卫星互联网星座计划,旨在为全球提供高速低延迟互联网服务。该卫星加入星链星座网络后,进一步扩展了星座覆盖范围,助力提升全球偏远地区等场景的网络接入能力。

基本信息
目录编号:
63901
目录名称:
STARLINK-34125
国际标识:
2025-095M
轨道中心:
EARTH
卫星名称:
星链-34125
卫星全名:
星链-34125 (STARLINK-34125)
卫星状态:
在轨 (已飞行354 天)
发射日期:
2025-05-10 UTC
国别 :
美国 (US)
星等 :
--
轨道信息
数据来源 国际轨道数据
星历时间: 2026-04-29T09:49:46+0800
15小时前
查看轨道信息
半长轴: 6861.127km
偏心率: 0.0003259
轨道倾角: 43.001°
近地点辐角 269.246°
升交点赤经 251.675°
平近点角 90.802°
近地点: 480.753km
远地点: 485.227km
周期: 94.266分钟
每日圈数: 15.275999
详细信息
固有亮度:
5
最大亮度:
2.5
卫星平台:
Starlink V1.0
覆盖范围:
全球
运营商:
太空探索技术公司
运营商所在国:
美国
制造商(研发单位):
太空探索技术公司
制造商所在国:
美国
使用方式:
暂无
卫星简介
Starlink 计划是 SpaceX 推出的全球卫星互联网项目,通过发射低轨道卫星,为全球尤其是偏远地区提供高速、低延迟的互联网服务。自 2019 年起,Starlink 已部署数千颗卫星,旨在缩小全球数字鸿沟,推动互联网普及。该项目还为军事、航空等行业提供通信支持,带来广泛经济效益。
2D轨道图
3D轨道图
轨道高度分析图
轨道倾角分析图
轨道综合分析图
查看轨道综合分析图